Starlink 11630

operational
NORAD ID: 63111 Int'l Des: 2025-039 Owner: SPXS Country: US Constellation: starlink
LEOCIRCULAR

Starlink 11630について

説明を読み込み中...

リアルタイム位置

3D地球を読み込み中...

次回通過

高度履歴

Altitude vs Time

uPlot chart will show altitude changes over time

軌道要素

1 63111U 25039H 25303.28965820 .00387437 00000-0 28719-2 0 9995
2 63111 42.9996 303.1469 0000600 220.1164 139.9660 15.70941881 39102
Epoch: Oct 30, 2025 • Age: 22 hours

現在のステータス

高度 356.7 km
速度 7.70 km/s
衛星直下点 38.46°N, 112.94°W
打ち上げ日 Feb 27, 2025
運用期間 0.6 years
タイプ internet

技術仕様

分類 Payload
質量 960.00 kg
乾燥質量 910.00 kg
総質量 960.00 kg
長さ 0.30 m
直径 4.10 m
スパン 29.00 m
形状 Box + pan
製造者 SPXS
バスタイプ Starlink V2MD
フェーズステータス In Orbit
所有者/国 SPXS/US

大規模コンステレーション

Loading constellations...